User: anonymous   Login
Location: Hale Hill Observatory
(39.3806°N, 86.8431°W)
Time: 00:13:04
(UTC-05:00)
Language:

Cosmos 990 Rocket - Orbit

View from above orbital plane
View from above orbital plane
View from above satellite
View from above satellite

Ground track
Ground track

The orbit data is extracted from the following two-line orbital elements,

1 10677U 78019B   14356.54300593  .00000547  00000-0  18259-3 0  5860
2 10677 074.0365 178.1137 0014259 116.6740 243.5877 14.39760532931854
Epoch (UTC): 22 December 2014 13:01:55
Eccentricity: 0.0014259
inclination: 74.0365°
perigee height: 749 km
apogee height: 769 km
right ascension of ascending node: 178.1137°
argument of perigee: 116.6740°
revolutions per day: 14.39760532
mean anomaly at epoch: 243.5877°
orbit number at epoch: 93185

The dashed part of the orbit path shows where the satellite is in the earth's shadow,  

DLR